Home   Weather   Tiruchirappalli   Past weeks
Flag for India

Past Weather in Tiruchirappalli, Tamil Nadu, India — March 2016

Now
72 °F

Fog.


Feels Like: 65 °F
Forecast: 83 / 71 °F
Wind: 5 mph from North

Location: Tiruchchirapalli

Current Time: Dec 15, 2019 at 6:29:20 am

Latest Report: Dec 15, 2019 at 6:00 am


Visibility: 2 mi

Pressure: 29.89 "Hg

Humidity: 100%

Dew Point: 72 °F

Location of TiruchirappalliLocation

March 2016 Weather in Tiruchirappalli — Graph

°F

High & Low Weather Summary for March 2016

 TemperatureHumidityPressure
High104 °F (Mar 20, 3:00 pm)94% (Mar 4, 4:30 am)30.01 "Hg (Mar 4, 4:30 am)
Low72 °F (Mar 4, 4:30 am)24% (Mar 19, 3:00 pm)29.68 "Hg (Mar 22, 3:30 pm)
Average87 °F61%29.86 "Hg
* Reported Mar 1 12:00 am — Mar 31 11:30 pm, Tiruchirappalli. Weather by CustomWeather, © 2019

Note: Actual official high and low records may vary slightly from our data, if they occured in-between our weather recording intervals... More about our weather records

Tiruchirappalli Weather History for March 1, 2016

Scroll right to see more
 ConditionsComfort  
Time TempWeatherWind HumidityBarometerVisibility
12:00 am
Tue, Mar 1
77 °FFog.3 mph83%29.98 "Hg2 mi
12:30 am77 °FFog.No wind83%29.98 "Hg2 mi
1:00 am77 °FFog.No wind83%29.98 "Hg2 mi
1:30 am77 °FFog.No wind83%29.95 "Hg2 mi
2:00 am77 °FFog.3 mph83%29.95 "Hg2 mi
2:30 am77 °FFog.5 mph83%29.95 "Hg2 mi
3:00 am77 °FFog.3 mph83%29.92 "Hg2 mi
3:30 am77 °FFog.5 mph83%29.92 "Hg2 mi
5:00 am75 °FFog.3 mph89%29.92 "Hg2 mi
6:00 am75 °FFog.6 mph89%29.95 "Hg2 mi
6:30 am75 °FFog.3 mph89%29.95 "Hg2 mi
7:30 am79 °FFog.5 mph84%29.98 "Hg1 mi
8:00 am79 °FFog.6 mph84%29.98 "Hg1 mi
8:30 am81 °FFog.8 mph79%29.98 "Hg1 mi
9:00 am82 °FScattered clouds.7 mph74%30.01 "Hg1 mi
9:30 am84 °FScattered clouds.10 mph70%30.01 "Hg2 mi
10:00 am86 °FScattered clouds.12 mph62%30.01 "Hg2 mi
10:30 am86 °FScattered clouds.12 mph62%30.01 "Hg2 mi
11:00 am88 °FScattered clouds.14 mph59%29.98 "Hg2 mi
11:30 am90 °FScattered clouds.14 mph52%29.95 "Hg3 mi
12:00 pm90 °FScattered clouds.14 mph52%29.95 "Hg3 mi
12:30 pm90 °FScattered clouds.8 mph52%29.92 "Hg3 mi
1:00 pm91 °FScattered clouds.8 mph49%29.92 "Hg4 mi
1:30 pm91 °FScattered clouds.8 mph49%29.89 "Hg4 mi
2:00 pm91 °FScattered clouds.12 mph49%29.89 "Hg4 mi
2:30 pm91 °FScattered clouds.10 mph44%29.86 "Hg4 mi
3:00 pm93 °FScattered clouds.8 mph41%29.86 "Hg4 mi
3:30 pm93 °FScattered clouds.9 mph41%29.86 "Hg4 mi
4:00 pm91 °FScattered clouds.9 mph44%29.86 "Hg4 mi
4:30 pm91 °FScattered clouds.13 mph44%29.86 "Hg4 mi
5:00 pm91 °FScattered clouds.15 mph44%29.86 "Hg4 mi
5:30 pm91 °FScattered clouds.10 mph46%29.86 "Hg4 mi
6:00 pm90 °FScattered clouds.10 mph49%29.86 "Hg4 mi
6:30 pm90 °FScattered clouds.15 mph49%29.89 "Hg4 mi
7:00 pm88 °FPassing clouds.10 mph55%29.89 "Hg4 mi
7:30 pm86 °FPassing clouds.13 mph59%29.89 "Hg4 mi
8:00 pm84 °FPassing clouds.10 mph66%29.92 "Hg3 mi
8:30 pm84 °FHaze.10 mph62%29.92 "Hg3 mi
9:00 pm82 °FHaze.10 mph66%29.95 "Hg3 mi
9:30 pm82 °FHaze.10 mph70%29.95 "Hg3 mi
10:00 pm81 °FHaze.9 mph74%29.95 "Hg3 mi
10:30 pm81 °FFog.9 mph74%29.95 "Hg3 mi
11:00 pm81 °FFog.9 mph79%29.95 "Hg2 mi
11:30 pm79 °FFog.8 mph84%29.95 "Hg2 mi
Weather by CustomWeather, © 2019

See weather overview

Advertising